| time (UTC) | temp C | wind direction | speed KPH | gust KPH | rain 1hr cm | rain 24hr cm | rain mn cm | humidity % | barometer mb |
| 20260508214535 | 22 | 186 | 0.0 | 0.0 | 0.00 | 0.00 | 0.00 | 44 | 1016.2 |
| 20260508214031 | 22 | 187 | 0.0 | 1.6 | 0.00 | 0.00 | 0.00 | 42 | 1016.0 |
| 20260508213529 | 22 | 187 | 0.0 | 0.0 | 0.00 | 0.00 | 0.00 | 44 | 1016.3 |
| 20260508213024 | 22 | 187 | 0.0 | 0.0 | 0.00 | 0.00 | 0.00 | 41 | 1016.2 |
| 20260508212521 | 22 | 187 | 0.0 | 0.0 | 0.00 | 0.00 | 0.00 | 39 | 1016.3 |
| 20260508212017 | 22 | 178 | 0.0 | 1.6 | 0.00 | 0.00 | 0.00 | 45 | 1016.0 |
| 20260508211513 | 22 | 161 | 0.0 | 0.0 | 0.00 | 0.00 | 0.00 | 40 | 1015.9 |
| 20260508211010 | 22 | 160 | 0.0 | 1.6 | 0.00 | 0.00 | 0.00 | 43 | 1016.0 |
| 20260508210506 | 22 | 191 | 0.0 | 1.6 | 0.00 | 0.00 | 0.00 | 43 | 1015.9 |
| 20260508210004 | 22 | 183 | 0.0 | 0.0 | 0.00 | 0.00 | 0.00 | 38 | 1015.9 |
| 20260508205500 | 22 | 184 | 0.0 | 0.0 | 0.00 | 0.00 | 0.00 | 42 | 1016.1 |
| 20260508204956 | 22 | 201 | 1.6 | 1.6 | 0.00 | 0.00 | 0.00 | 37 | 1016.2 |
| 20260508204454 | 22 | 166 | 0.0 | 0.0 | 0.00 | 0.00 | 0.00 | 37 | 1016.3 |
| 20260508203949 | 23 | 166 | 0.0 | 0.0 | 0.00 | 0.00 | 0.00 | 36 | 1016.2 |
| 20260508203445 | 22 | 166 | 0.0 | 0.0 | 0.00 | 0.00 | 0.00 | 35 | 1016.5 |
| 20260508202941 | 22 | 188 | 1.6 | 1.6 | 0.00 | 0.00 | 0.00 | 39 | 1016.5 |
| 20260508202439 | 22 | 199 | 1.6 | 1.6 | 0.00 | 0.00 | 0.00 | 35 | 1016.5 |
| 20260508201935 | 23 | 205 | 1.6 | 1.6 | 0.00 | 0.00 | 0.00 | 35 | 1016.5 |
| 20260508201432 | 23 | 169 | 0.0 | 0.0 | 0.00 | 0.00 | 0.00 | 33 | 1016.4 |
| 20260508200929 | 23 | 184 | 0.0 | 1.6 | 0.00 | 0.00 | 0.00 | 35 | 1016.2 |
| 20260508200426 | 23 | 188 | 1.6 | 1.6 | 0.00 | 0.00 | 0.00 | 34 | 1016.5 |
| 20260508195921 | 23 | 184 | 0.0 | 1.6 | 0.00 | 0.00 | 0.00 | 33 | 1016.6 |
| 20260508195418 | 23 | 152 | 0.0 | 1.6 | 0.00 | 0.00 | 0.00 | 34 | 1016.5 |
| 20260508194914 | 23 | 153 | 0.0 | 0.0 | 0.00 | 0.00 | 0.00 | 36 | 1016.4 |
| 20260508194412 | 23 | 153 | 0.0 | 1.6 | 0.00 | 0.00 | 0.00 | 32 | 1016.5 |
| 20260508193908 | 23 | 183 | 0.0 | 1.6 | 0.00 | 0.00 | 0.00 | 34 | 1016.7 |
| 20260508193405 | 23 | 191 | 1.6 | 1.6 | 0.00 | 0.00 | 0.00 | 33 | 1016.8 |
| 20260508192902 | 23 | 168 | 0.0 | 1.6 | 0.00 | 0.00 | 0.00 | 35 | 1017.1 |
| 20260508192358 | 23 | 188 | 0.0 | 1.6 | 0.00 | 0.00 | 0.00 | 35 | 1017.2 |
| 20260508191856 | 23 | 162 | 0.0 | 0.0 | 0.00 | 0.00 | 0.00 | 37 | 1017.1 |
| 20260508191353 | 24 | 188 | 1.6 | 1.6 | 0.00 | 0.00 | 0.00 | 31 | 1016.9 |
| 20260508190850 | 24 | 179 | 0.0 | 0.0 | 0.00 | 0.00 | 0.00 | 31 | 1017.2 |
| 20260508190346 | 24 | 206 | 0.0 | 0.0 | 0.00 | 0.00 | 0.00 | 31 | 1017.2 |
| 20260508185843 | 24 | 151 | 0.0 | 1.6 | 0.00 | 0.00 | 0.00 | 30 | 1017.4 |
| 20260508185340 | 24 | 193 | 0.0 | 4.8 | 0.00 | 0.00 | 0.00 | 31 | 1017.7 |
| 20260508184838 | 24 | 298 | 3.2 | 4.8 | 0.00 | 0.00 | 0.00 | 31 | 1017.6 |
| 20260508184335 | 24 | 208 | 1.6 | 3.2 | 0.00 | 0.00 | 0.00 | 32 | 1017.7 |
| 20260508183831 | 24 | 191 | 0.0 | 1.6 | 0.00 | 0.00 | 0.00 | 30 | 1017.7 |
| 20260508183328 | 24 | 170 | 0.0 | 1.6 | 0.00 | 0.00 | 0.00 | 30 | 1017.7 |
| 20260508182824 | 24 | 167 | 1.6 | 1.6 | 0.00 | 0.00 | 0.00 | 31 | 1017.9 |
| 20260508182321 | 24 | 155 | 0.0 | 1.6 | 0.00 | 0.00 | 0.00 | 32 | 1017.8 |
| 20260508181816 | 24 | 157 | 1.6 | 1.6 | 0.00 | 0.00 | 0.00 | 28 | 1018.0 |
| 20260508181314 | 25 | 172 | 0.0 | 1.6 | 0.00 | 0.00 | 0.00 | 29 | 1017.9 |
| 20260508180811 | 24 | 214 | 1.6 | 3.2 | 0.00 | 0.00 | 0.00 | 31 | 1018.1 |
| 20260508180308 | 24 | 209 | 1.6 | 1.6 | 0.00 | 0.00 | 0.00 | 32 | 1018.3 |
| 20260508175804 | 23 | 172 | 0.0 | 1.6 | 0.00 | 0.00 | 0.00 | 31 | 1018.3 |
| 20260508175300 | 23 | 154 | 1.6 | 1.6 | 0.00 | 0.00 | 0.00 | 33 | 1018.2 |
| 20260508174758 | 23 | 226 | 0.0 | 0.0 | 0.00 | 0.00 | 0.00 | 34 | 1018.2 |
| 20260508174255 | 23 | 236 | 1.6 | 3.2 | 0.00 | 0.00 | 0.00 | 35 | 1018.1 |
| 20260508173746 | 22 | 200 | 0.0 | 3.2 | 0.00 | 0.00 | 0.00 | 36 | 1018.2 |
| 20260508173242 | 23 | 185 | 0.0 | 3.2 | 0.00 | 0.00 | 0.00 | 33 | 1018.3 |
| 20260508172739 | 23 | 159 | 0.0 | 1.6 | 0.00 | 0.00 | 0.00 | 34 | 1018.4 |
| 20260508172237 | 23 | 184 | 0.0 | 3.2 | 0.00 | 0.00 | 0.00 | 35 | 1018.4 |
| 20260508171733 | 23 | 212 | 1.6 | 3.2 | 0.00 | 0.00 | 0.00 | 34 | 1018.5 |
| 20260508171229 | 23 | 195 | 1.6 | 1.6 | 0.00 | 0.00 | 0.00 | 34 | 1018.6 |
| 20260508170726 | 23 | 152 | 1.6 | 1.6 | 0.00 | 0.00 | 0.00 | 34 | 1018.7 |
| 20260508170224 | 23 | 163 | 1.6 | 3.2 | 0.00 | 0.00 | 0.00 | 39 | 1018.9 |
| 20260508165720 | 23 | 161 | 0.0 | 1.6 | 0.00 | 0.00 | 0.00 | 34 | 1019.0 |
| 20260508165217 | 23 | 164 | 0.0 | 1.6 | 0.00 | 0.00 | 0.00 | 36 | 1018.9 |
| 20260508164714 | 23 | 170 | 0.0 | 0.0 | 0.00 | 0.00 | 0.00 | 35 | 1019.1 |
| 20260508164210 | 23 | 170 | 0.0 | 0.0 | 0.00 | 0.00 | 0.00 | 39 | 1019.3 |
| 20260508163709 | 23 | 238 | 1.6 | 3.2 | 0.00 | 0.00 | 0.00 | 34 | 1019.4 |
| 20260508163206 | 22 | 192 | 0.0 | 1.6 | 0.00 | 0.00 | 0.00 | 36 | 1019.4 |
| 20260508162701 | 22 | 198 | 1.6 | 1.6 | 0.00 | 0.00 | 0.00 | 41 | 1019.5 |
| 20260508162159 | 21 | 161 | 0.0 | 1.6 | 0.00 | 0.00 | 0.00 | 36 | 1019.4 |
| 20260508161656 | 21 | 150 | 0.0 | 1.6 | 0.00 | 0.00 | 0.00 | 40 | 1019.3 |
| 20260508161153 | 21 | 150 | 1.6 | 3.2 | 0.00 | 0.00 | 0.00 | 38 | 1019.5 |
| 20260508160651 | 21 | 138 | 0.0 | 1.6 | 0.00 | 0.00 | 0.00 | 40 | 1019.8 |
| 20260508160149 | 21 | 152 | 0.0 | 1.6 | 0.00 | 0.00 | 0.00 | 41 | 1019.8 |
| 20260508155645 | 21 | 147 | 0.0 | 0.0 | 0.00 | 0.00 | 0.00 | 41 | 1019.9 |
| 20260508155142 | 21 | 158 | 0.0 | 1.6 | 0.00 | 0.00 | 0.00 | 40 | 1019.9 |
| 20260508154639 | 21 | 149 | 0.0 | 3.2 | 0.00 | 0.00 | 0.00 | 39 | 1020.2 |
| 20260508154136 | 21 | 155 | 0.0 | 0.0 | 0.00 | 0.00 | 0.00 | 42 | 1020.2 |
| 20260508153633 | 20 | 162 | 0.0 | 1.6 | 0.00 | 0.00 | 0.00 | 41 | 1020.1 |
| 20260508153130 | 20 | 168 | 0.0 | 0.0 | 0.00 | 0.00 | 0.00 | 42 | 1020.2 |
| 20260508152627 | 20 | 145 | 0.0 | 0.0 | 0.00 | 0.00 | 0.00 | 43 | 1020.2 |
| 20260508152121 | 20 | 145 | 0.0 | 0.0 | 0.00 | 0.00 | 0.00 | 41 | 1020.2 |
| 20260508151619 | 20 | 145 | 0.0 | 1.6 | 0.00 | 0.00 | 0.00 | 42 | 1020.0 |
| 20260508151115 | 20 | 145 | 0.0 | 0.0 | 0.00 | 0.00 | 0.00 | 52 | 1020.1 |
| 20260508150612 | 19 | 145 | 0.0 | 1.6 | 0.00 | 0.00 | 0.00 | 48 | 1019.9 |
| 20260508150109 | 19 | 145 | 0.0 | 0.0 | 0.00 | 0.00 | 0.00 | 44 | 1019.9 |
| 20260508145605 | 19 | 151 | 0.0 | 0.0 | 0.00 | 0.00 | 0.00 | 49 | 1019.7 |
| 20260508145102 | 20 | 154 | 0.0 | 0.0 | 0.00 | 0.00 | 0.00 | 50 | 1020.0 |
| 20260508144600 | 20 | 152 | 0.0 | 0.0 | 0.00 | 0.00 | 0.00 | 48 | 1019.8 |
| 20260508144057 | 19 | 165 | 0.0 | 1.6 | 0.00 | 0.00 | 0.00 | 50 | 1020.1 |
| 20260508143554 | 19 | 142 | 1.6 | 1.6 | 0.00 | 0.00 | 0.00 | 51 | 1020.1 |
| 20260508143051 | 19 | 146 | 0.0 | 0.0 | 0.00 | 0.00 | 0.00 | 54 | 1020.2 |
| 20260508142547 | 18 | 147 | 0.0 | 1.6 | 0.00 | 0.00 | 0.00 | 55 | 1020.2 |
| 20260508142043 | 18 | 147 | 0.0 | 0.0 | 0.00 | 0.00 | 0.00 | 52 | 1020.1 |
| 20260508141541 | 18 | 139 | 0.0 | 1.6 | 0.00 | 0.00 | 0.00 | 57 | 1020.1 |
| 20260508141038 | 17 | 151 | 0.0 | 0.0 | 0.00 | 0.00 | 0.00 | 61 | 1020.4 |
| 20260508140536 | 17 | 152 | 0.0 | 0.0 | 0.00 | 0.00 | 0.00 | 62 | 1020.2 |
| 20260508140032 | 17 | 160 | 0.0 | 0.0 | 0.00 | 0.00 | 0.00 | 63 | 1020.3 |
| 20260508135527 | 17 | 161 | 0.0 | 0.0 | 0.00 | 0.00 | 0.00 | 65 | 1020.3 |
| 20260508135024 | 16 | 179 | 1.6 | 3.2 | 0.00 | 0.00 | 0.00 | 65 | 1020.5 |
| 20260508134521 | 16 | 150 | 0.0 | 0.0 | 0.00 | 0.00 | 0.00 | 68 | 1020.4 |
| 20260508134018 | 16 | 150 | 0.0 | 0.0 | 0.00 | 0.00 | 0.00 | 70 | 1020.4 |
| 20260508133514 | 16 | 150 | 0.0 | 0.0 | 0.00 | 0.00 | 0.00 | 74 | 1020.4 |
| 20260508133011 | 15 | 150 | 0.0 | 0.0 | 0.00 | 0.00 | 0.00 | 73 | 1020.1 |
| 20260508132509 | 15 | 150 | 0.0 | 0.0 | 0.00 | 0.00 | 0.00 | 78 | 1020.2 |
| 20260508132006 | 15 | 150 | 0.0 | 0.0 | 0.00 | 0.00 | 0.00 | 81 | 1020.1 |
| 20260508131501 | 15 | 150 | 0.0 | 0.0 | 0.00 | 0.00 | 0.00 | 81 | 1020.2 |
| 20260508130958 | 15 | 150 | 0.0 | 0.0 | 0.00 | 0.00 | 0.00 | 86 | 1020.1 |
| 20260508130455 | 15 | 150 | 0.0 | 0.0 | 0.00 | 0.00 | 0.00 | 87 | 1020.0 |
| 20260508125950 | 15 | 150 | 0.0 | 0.0 | 0.00 | 0.00 | 0.00 | 87 | 1019.8 |
| 20260508125447 | 14 | 150 | 0.0 | 0.0 | 0.00 | 0.00 | 0.00 | 87 | 1019.9 |
| 20260508124945 | 14 | 150 | 0.0 | 0.0 | 0.00 | 0.00 | 0.00 | 87 | 1019.8 |
| 20260508124442 | 13 | 150 | 0.0 | 0.0 | 0.00 | 0.00 | 0.00 | 87 | 1019.6 |
| 20260508123939 | 13 | 151 | 0.0 | 0.0 | 0.00 | 0.00 | 0.00 | 87 | 1019.7 |
| 20260508123439 | 13 | 151 | 0.0 | 0.0 | 0.00 | 0.00 | 0.00 | 87 | 1019.7 |
| 20260508122934 | 13 | 150 | 0.0 | 0.0 | 0.00 | 0.00 | 0.00 | 87 | 1019.6 |
| 20260508122431 | 13 | 150 | 0.0 | 0.0 | 0.00 | 0.00 | 0.00 | 87 | 1019.6 |
| 20260508121928 | 12 | 150 | 0.0 | 0.0 | 0.00 | 0.00 | 0.00 | 87 | 1019.6 |
| 20260508121427 | 13 | 150 | 0.0 | 0.0 | 0.00 | 0.00 | 0.00 | 87 | 1019.6 |
| 20260508120924 | 12 | 150 | 0.0 | 0.0 | 0.00 | 0.00 | 0.00 | 87 | 1019.8 |
| 20260508120422 | 12 | 150 | 0.0 | 0.0 | 0.00 | 0.00 | 0.00 | 87 | 1019.4 |
| 20260508115919 | 12 | 150 | 0.0 | 0.0 | 0.00 | 0.00 | 0.00 | 87 | 1019.5 |
| 20260508115418 | 12 | 150 | 0.0 | 0.0 | 0.00 | 0.00 | 0.00 | 87 | 1019.4 |
| 20260508114914 | 12 | 150 | 0.0 | 0.0 | 0.00 | 0.00 | 0.00 | 87 | 1019.3 |
| 20260508114410 | 12 | 150 | 0.0 | 0.0 | 0.00 | 0.00 | 0.00 | 87 | 1019.2 |
| 20260508113906 | 12 | 150 | 0.0 | 0.0 | 0.00 | 0.00 | 0.00 | 87 | 1019.1 |
| 20260508113404 | 11 | 150 | 0.0 | 0.0 | 0.00 | 0.00 | 0.00 | 87 | 1018.9 |
| 20260508112901 | 11 | 150 | 0.0 | 0.0 | 0.00 | 0.00 | 0.00 | 87 | 1018.7 |
| 20260508112358 | 11 | 150 | 0.0 | 0.0 | 0.00 | 0.00 | 0.00 | 87 | 1018.5 |
| 20260508111855 | 11 | 150 | 0.0 | 0.0 | 0.00 | 0.00 | 0.00 | 87 | 1018.5 |
| 20260508111352 | 11 | 150 | 0.0 | 0.0 | 0.00 | 0.00 | 0.00 | 87 | 1018.4 |
| 20260508110849 | 11 | 150 | 0.0 | 0.0 | 0.00 | 0.00 | 0.00 | 87 | 1018.4 |
| 20260508110347 | 11 | 150 | 0.0 | 0.0 | 0.00 | 0.00 | 0.00 | 87 | 1018.4 |
| 20260508105846 | 11 | 150 | 0.0 | 0.0 | 0.00 | 0.00 | 0.00 | 87 | 1018.3 |
| 20260508105343 | 11 | 150 | 0.0 | 0.0 | 0.00 | 0.00 | 0.00 | 87 | 1018.2 |
| 20260508104840 | 11 | 150 | 0.0 | 0.0 | 0.00 | 0.00 | 0.00 | 87 | 1018.0 |
| 20260508104337 | 11 | 150 | 0.0 | 0.0 | 0.00 | 0.00 | 0.00 | 87 | 1018.2 |
| 20260508103835 | 11 | 150 | 0.0 | 0.0 | 0.00 | 0.00 | 0.00 | 87 | 1017.9 |
| 20260508103331 | 11 | 150 | 0.0 | 0.0 | 0.00 | 0.00 | 0.00 | 87 | 1017.8 |
| 20260508102828 | 11 | 150 | 0.0 | 0.0 | 0.00 | 0.00 | 0.00 | 87 | 1017.8 |
| 20260508102327 | 11 | 150 | 0.0 | 0.0 | 0.00 | 0.00 | 0.00 | 87 | 1017.6 |
| 20260508101823 | 11 | 150 | 0.0 | 0.0 | 0.00 | 0.00 | 0.00 | 87 | 1017.4 |
| 20260508101321 | 11 | 150 | 0.0 | 0.0 | 0.00 | 0.00 | 0.00 | 87 | 1017.3 |
| 20260508100818 | 11 | 150 | 0.0 | 0.0 | 0.00 | 0.00 | 0.00 | 87 | 1017.3 |
| 20260508100317 | 11 | 150 | 0.0 | 0.0 | 0.00 | 0.00 | 0.00 | 87 | 1017.2 |
| 20260508095812 | 11 | 150 | 0.0 | 0.0 | 0.00 | 0.00 | 0.00 | 87 | 1017.2 |
| 20260508095310 | 11 | 150 | 0.0 | 0.0 | 0.00 | 0.00 | 0.00 | 87 | 1017.1 |
| 20260508094806 | 11 | 150 | 0.0 | 0.0 | 0.00 | 0.00 | 0.00 | 87 | 1017.3 |
| 20260508094304 | 12 | 150 | 0.0 | 0.0 | 0.00 | 0.00 | 0.00 | 87 | 1017.1 |
| 20260508093801 | 12 | 150 | 0.0 | 0.0 | 0.00 | 0.00 | 0.00 | 87 | 1017.1 |
| 20260508093258 | 12 | 150 | 0.0 | 0.0 | 0.00 | 0.00 | 0.00 | 87 | 1017.1 |
| 20260508092755 | 12 | 150 | 0.0 | 0.0 | 0.00 | 0.00 | 0.00 | 87 | 1016.9 |
| 20260508092253 | 12 | 150 | 0.0 | 0.0 | 0.00 | 0.00 | 0.00 | 87 | 1016.8 |
| 20260508091751 | 12 | 150 | 0.0 | 0.0 | 0.00 | 0.00 | 0.00 | 87 | 1016.9 |
| 20260508091247 | 12 | 150 | 0.0 | 0.0 | 0.00 | 0.00 | 0.00 | 87 | 1017.0 |
| 20260508090745 | 12 | 150 | 0.0 | 0.0 | 0.00 | 0.00 | 0.00 | 87 | 1016.8 |
| 20260508090243 | 12 | 150 | 0.0 | 0.0 | 0.00 | 0.00 | 0.00 | 87 | 1016.8 |
| 20260508085738 | 12 | 150 | 0.0 | 0.0 | 0.00 | 0.00 | 0.00 | 87 | 1016.9 |
| 20260508085236 | 12 | 150 | 0.0 | 0.0 | 0.00 | 0.00 | 0.00 | 87 | 1016.9 |
| 20260508084731 | 12 | 150 | 0.0 | 0.0 | 0.00 | 0.00 | 0.00 | 87 | 1017.0 |
| 20260508084230 | 12 | 150 | 0.0 | 0.0 | 0.00 | 0.00 | 0.00 | 87 | 1016.8 |
| 20260508083727 | 12 | 150 | 0.0 | 0.0 | 0.00 | 0.00 | 0.00 | 87 | 1017.0 |
| 20260508083225 | 12 | 150 | 0.0 | 0.0 | 0.00 | 0.00 | 0.00 | 87 | 1016.7 |
| 20260508082719 | 12 | 150 | 0.0 | 0.0 | 0.00 | 0.00 | 0.00 | 87 | 1016.8 |
| 20260508082217 | 13 | 150 | 0.0 | 0.0 | 0.00 | 0.00 | 0.00 | 87 | 1016.7 |
| 20260508081714 | 13 | 150 | 0.0 | 0.0 | 0.00 | 0.00 | 0.00 | 87 | 1016.7 |
| 20260508081210 | 13 | 150 | 0.0 | 0.0 | 0.00 | 0.00 | 0.00 | 87 | 1016.7 |
| 20260508080708 | 13 | 150 | 0.0 | 0.0 | 0.00 | 0.00 | 0.00 | 87 | 1016.7 |
| 20260508080206 | 13 | 150 | 0.0 | 0.0 | 0.00 | 0.00 | 0.00 | 87 | 1016.7 |
| 20260508075702 | 13 | 150 | 0.0 | 0.0 | 0.00 | 0.00 | 0.00 | 87 | 1016.7 |
| 20260508075159 | 13 | 150 | 0.0 | 0.0 | 0.00 | 0.00 | 0.00 | 87 | 1016.7 |
| 20260508074657 | 13 | 150 | 0.0 | 0.0 | 0.00 | 0.00 | 0.00 | 87 | 1016.6 |
| 20260508074154 | 13 | 150 | 0.0 | 0.0 | 0.00 | 0.00 | 0.00 | 87 | 1016.4 |
| 20260508073651 | 13 | 150 | 0.0 | 0.0 | 0.00 | 0.00 | 0.00 | 87 | 1016.3 |
| 20260508073149 | 13 | 150 | 0.0 | 0.0 | 0.00 | 0.00 | 0.00 | 87 | 1016.3 |
| 20260508072644 | 13 | 150 | 0.0 | 0.0 | 0.00 | 0.00 | 0.00 | 86 | 1016.5 |
| 20260508072141 | 13 | 150 | 0.0 | 0.0 | 0.00 | 0.00 | 0.00 | 86 | 1016.3 |
| 20260508071639 | 13 | 150 | 0.0 | 0.0 | 0.00 | 0.00 | 0.00 | 86 | 1016.4 |
| 20260508071137 | 13 | 150 | 0.0 | 0.0 | 0.00 | 0.00 | 0.00 | 86 | 1016.4 |
| 20260508070634 | 14 | 150 | 0.0 | 0.0 | 0.00 | 0.00 | 0.00 | 86 | 1016.2 |
| 20260508070133 | 14 | 150 | 0.0 | 0.0 | 0.00 | 0.00 | 0.00 | 86 | 1016.2 |
| 20260508065630 | 14 | 150 | 0.0 | 0.0 | 0.00 | 0.00 | 0.00 | 86 | 1016.2 |
| 20260508065127 | 14 | 150 | 0.0 | 0.0 | 0.00 | 0.00 | 0.00 | 86 | 1016.3 |
| 20260508064625 | 14 | 150 | 0.0 | 0.0 | 0.00 | 0.00 | 0.00 | 86 | 1016.1 |
| 20260508064123 | 14 | 150 | 0.0 | 0.0 | 0.00 | 0.00 | 0.00 | 85 | 1016.0 |
| 20260508063620 | 15 | 150 | 0.0 | 0.0 | 0.00 | 0.00 | 0.00 | 85 | 1016.1 |
| 20260508063119 | 15 | 150 | 0.0 | 0.0 | 0.00 | 0.00 | 0.00 | 85 | 1015.9 |
| 20260508062615 | 15 | 150 | 0.0 | 0.0 | 0.00 | 0.00 | 0.00 | 85 | 1016.0 |
| 20260508062112 | 15 | 150 | 0.0 | 0.0 | 0.00 | 0.00 | 0.00 | 85 | 1016.1 |
| 20260508061609 | 15 | 150 | 0.0 | 0.0 | 0.00 | 0.00 | 0.00 | 84 | 1016.3 |
| 20260508061106 | 15 | 150 | 0.0 | 0.0 | 0.00 | 0.00 | 0.00 | 84 | 1016.2 |
| 20260508060603 | 15 | 150 | 0.0 | 0.0 | 0.00 | 0.00 | 0.00 | 84 | 1016.2 |
| 20260508060100 | 15 | 150 | 0.0 | 0.0 | 0.00 | 0.00 | 0.00 | 84 | 1016.4 |
| 20260508055556 | 15 | 150 | 0.0 | 0.0 | 0.00 | 0.00 | 0.00 | 84 | 1016.5 |
| 20260508055053 | 15 | 150 | 0.0 | 0.0 | 0.00 | 0.00 | 0.00 | 84 | 1016.3 |
| 20260508054549 | 15 | 150 | 0.0 | 0.0 | 0.00 | 0.00 | 0.00 | 83 | 1016.3 |
| 20260508054047 | 15 | 150 | 0.0 | 0.0 | 0.00 | 0.00 | 0.00 | 83 | 1016.4 |
| 20260508053543 | 15 | 150 | 0.0 | 0.0 | 0.00 | 0.00 | 0.00 | 83 | 1016.4 |
| 20260508053042 | 16 | 150 | 0.0 | 0.0 | 0.00 | 0.00 | 0.00 | 82 | 1016.5 |
| 20260508052539 | 16 | 150 | 0.0 | 0.0 | 0.00 | 0.00 | 0.00 | 82 | 1016.4 |
| 20260508052035 | 16 | 150 | 0.0 | 0.0 | 0.00 | 0.00 | 0.00 | 82 | 1016.3 |
| 20260508051532 | 16 | 150 | 0.0 | 0.0 | 0.00 | 0.00 | 0.00 | 81 | 1016.2 |
| 20260508051027 | 16 | 150 | 0.0 | 0.0 | 0.00 | 0.00 | 0.00 | 82 | 1016.3 |
| 20260508050524 | 16 | 150 | 0.0 | 0.0 | 0.00 | 0.00 | 0.00 | 81 | 1016.2 |
| 20260508050021 | 16 | 150 | 0.0 | 0.0 | 0.00 | 0.00 | 0.00 | 81 | 1016.3 |
| 20260508045517 | 16 | 150 | 0.0 | 0.0 | 0.00 | 0.00 | 0.00 | 82 | 1016.2 |
| 20260508045015 | 16 | 150 | 0.0 | 0.0 | 0.00 | 0.00 | 0.00 | 82 | 1016.0 |
| 20260508044512 | 16 | 150 | 0.0 | 0.0 | 0.00 | 0.00 | 0.00 | 82 | 1016.2 |
| 20260508044008 | 16 | 150 | 0.0 | 0.0 | 0.00 | 0.00 | 0.00 | 81 | 1016.2 |
| 20260508043505 | 16 | 150 | 0.0 | 0.0 | 0.00 | 0.00 | 0.00 | 81 | 1015.9 |
| 20260508043001 | 16 | 150 | 0.0 | 0.0 | 0.00 | 0.00 | 0.00 | 81 | 1015.9 |
| 20260508042459 | 16 | 150 | 0.0 | 0.0 | 0.00 | 0.00 | 0.00 | 81 | 1015.9 |
| 20260508041956 | 16 | 150 | 0.0 | 0.0 | 0.00 | 0.00 | 0.00 | 80 | 1015.8 |
| 20260508041452 | 16 | 150 | 0.0 | 0.0 | 0.00 | 0.00 | 0.00 | 80 | 1015.8 |
| 20260508040949 | 17 | 150 | 0.0 | 0.0 | 0.00 | 0.00 | 0.00 | 80 | 1015.8 |
| 20260508040446 | 17 | 150 | 0.0 | 0.0 | 0.00 | 0.00 | 0.00 | 79 | 1015.9 |
| 20260508035944 | 17 | 150 | 0.0 | 0.0 | 0.00 | 3.91 | 3.91 | 78 | 1015.6 |
| 20260508035440 | 17 | 150 | 0.0 | 0.0 | 0.00 | 3.91 | 3.91 | 77 | 1015.7 |
| 20260508034937 | 17 | 150 | 0.0 | 0.0 | 0.00 | 3.91 | 3.91 | 76 | 1015.8 |
| 20260508034435 | 17 | 150 | 0.0 | 0.0 | 0.00 | 3.91 | 3.91 | 76 | 1015.6 |
| 20260508033931 | 17 | 150 | 0.0 | 0.0 | 0.00 | 3.91 | 3.91 | 75 | 1015.7 |
| 20260508033430 | 17 | 151 | 0.0 | 0.0 | 0.00 | 3.91 | 3.91 | 75 | 1015.6 |
| 20260508032926 | 17 | 151 | 0.0 | 0.0 | 0.00 | 3.91 | 3.91 | 75 | 1015.7 |
| 20260508032424 | 17 | 157 | 0.0 | 0.0 | 0.00 | 3.91 | 3.91 | 74 | 1015.6 |
| 20260508031920 | 18 | 157 | 0.0 | 0.0 | 0.00 | 3.91 | 3.91 | 73 | 1015.6 |
| 20260508031418 | 18 | 155 | 0.0 | 0.0 | 0.00 | 3.91 | 3.91 | 72 | 1015.4 |
| 20260508030913 | 18 | 156 | 0.0 | 0.0 | 0.00 | 3.91 | 3.91 | 73 | 1015.5 |
| 20260508030411 | 18 | 146 | 0.0 | 0.0 | 0.00 | 3.91 | 3.91 | 73 | 1015.5 |
| 20260508025908 | 18 | 149 | 0.0 | 0.0 | 0.00 | 3.91 | 3.91 | 74 | 1015.5 |
| 20260508025404 | 18 | 149 | 0.0 | 0.0 | 0.00 | 3.91 | 3.91 | 75 | 1015.1 |
| 20260508024901 | 18 | 149 | 0.0 | 0.0 | 0.00 | 3.91 | 3.91 | 75 | 1015.2 |
| 20260508024358 | 18 | 149 | 0.0 | 0.0 | 0.00 | 3.91 | 3.91 | 75 | 1015.1 |
| 20260508023855 | 18 | 149 | 0.0 | 0.0 | 0.00 | 3.91 | 3.91 | 73 | 1014.9 |
| 20260508023352 | 18 | 149 | 0.0 | 0.0 | 0.00 | 3.91 | 3.91 | 72 | 1014.9 |
| 20260508022848 | 19 | 149 | 0.0 | 0.0 | 0.00 | 3.91 | 3.91 | 73 | 1015.0 |
| 20260508022344 | 19 | 149 | 0.0 | 0.0 | 0.00 | 3.91 | 3.91 | 73 | 1014.9 |
| 20260508021841 | 19 | 157 | 0.0 | 1.6 | 0.00 | 3.91 | 3.91 | 73 | 1014.8 |
| 20260508021337 | 20 | 172 | 0.0 | 0.0 | 0.00 | 3.91 | 3.91 | 73 | 1014.5 |
| 20260508020833 | 20 | 175 | 0.0 | 0.0 | 0.00 | 3.91 | 3.91 | 71 | 1014.4 |
| 20260508020331 | 20 | 165 | 0.0 | 1.6 | 0.00 | 3.91 | 3.91 | 73 | 1014.2 |
| 20260508015828 | 20 | 160 | 0.0 | 0.0 | 0.00 | 3.91 | 3.91 | 72 | 1014.3 |
| 20260508015326 | 20 | 156 | 0.0 | 1.6 | 0.00 | 3.91 | 3.91 | 72 | 1014.0 |
| 20260508014822 | 20 | 127 | 0.0 | 1.6 | 0.00 | 3.91 | 3.91 | 74 | 1013.9 |
| 20260508014319 | 20 | 151 | 0.0 | 4.8 | 0.00 | 3.91 | 3.91 | 78 | 1013.8 |
| 20260508013814 | 20 | 202 | 0.0 | 0.0 | 0.00 | 3.91 | 3.91 | 82 | 1013.6 |
| 20260508013311 | 20 | 202 | 0.0 | 0.0 | 0.00 | 3.91 | 3.91 | 81 | 1013.4 |
| 20260508012809 | 20 | 202 | 0.0 | 0.0 | 0.00 | 3.91 | 3.91 | 80 | 1013.0 |
| 20260508012307 | 20 | 202 | 0.0 | 0.0 | 0.00 | 3.91 | 3.91 | 80 | 1012.8 |
| 20260508011804 | 20 | 202 | 0.0 | 0.0 | 0.00 | 3.91 | 3.91 | 80 | 1012.8 |
| 20260508011301 | 20 | 202 | 0.0 | 0.0 | 0.00 | 3.91 | 3.91 | 79 | 1012.7 |
| 20260508010758 | 20 | 202 | 0.0 | 0.0 | 0.00 | 3.91 | 3.91 | 77 | 1012.5 |
| 20260508010256 | 20 | 202 | 0.0 | 0.0 | 0.00 | 3.91 | 3.91 | 77 | 1012.3 |
| 20260508005752 | 20 | 202 | 0.0 | 0.0 | 0.00 | 3.91 | 3.91 | 78 | 1012.2 |
| 20260508005249 | 21 | 202 | 0.0 | 0.0 | 0.00 | 3.91 | 3.91 | 76 | 1012.1 |
| 20260508004744 | 21 | 202 | 0.0 | 0.0 | 0.00 | 3.91 | 3.91 | 75 | 1011.9 |
| 20260508004242 | 21 | 202 | 0.0 | 0.0 | 0.00 | 3.91 | 3.91 | 74 | 1011.6 |
| 20260508003738 | 21 | 202 | 0.0 | 1.6 | 0.00 | 3.91 | 3.91 | 73 | 1011.6 |
| 20260508003235 | 21 | 202 | 1.6 | 1.6 | 0.00 | 3.91 | 3.91 | 73 | 1011.4 |
| 20260508002732 | 21 | 202 | 0.0 | 1.6 | 0.00 | 3.91 | 3.91 | 72 | 1011.4 |
| 20260508002229 | 21 | 202 | 0.0 | 1.6 | 0.00 | 3.91 | 3.91 | 72 | 1011.4 |
| 20260508001725 | 22 | 199 | 0.0 | 1.6 | 0.00 | 3.91 | 3.91 | 71 | 1011.2 |
| 20260508001220 | 22 | 199 | 0.0 | 1.6 | 0.00 | 3.91 | 3.91 | 71 | 1011.0 |
| 20260508000717 | 22 | 200 | 1.6 | 1.6 | 0.00 | 3.91 | 3.91 | 71 | 1011.0 |
| 20260508000214 | 22 | 198 | 0.0 | 0.0 | 0.00 | 3.91 | 3.91 | 69 | 1011.0 |
| 20260507235710 | 22 | 208 | 1.6 | 1.6 | 0.00 | 3.91 | 3.91 | 69 | 1010.9 |
| 20260507235208 | 22 | 198 | 1.6 | 1.6 | 0.00 | 3.91 | 3.91 | 69 | 1010.8 |
| 20260507234705 | 22 | 192 | 0.0 | 1.6 | 0.00 | 3.91 | 3.91 | 69 | 1010.7 |
| 20260507234202 | 22 | 199 | 1.6 | 1.6 | 0.00 | 3.91 | 3.91 | 68 | 1010.7 |
| 20260507233658 | 23 | 192 | 0.0 | 1.6 | 0.00 | 3.91 | 3.91 | 68 | 1010.6 |
| 20260507233157 | 23 | 188 | 0.0 | 3.2 | 0.00 | 3.91 | 3.91 | 69 | 1010.6 |
| 20260507232653 | 23 | 199 | 0.0 | 0.0 | 0.00 | 3.91 | 3.91 | 69 | 1010.4 |
| 20260507232150 | 23 | 192 | 0.0 | 1.6 | 0.00 | 3.91 | 3.91 | 67 | 1010.6 |
| 20260507231647 | 23 | 203 | 0.0 | 0.0 | 0.00 | 3.91 | 3.91 | 69 | 1010.3 |
| 20260507231144 | 23 | 196 | 0.0 | 1.6 | 0.00 | 3.91 | 3.91 | 70 | 1010.2 |
| 20260507230640 | 23 | 187 | 0.0 | 1.6 | 0.00 | 3.91 | 3.91 | 71 | 1010.0 |
| 20260507230133 | 23 | 196 | 0.0 | 1.6 | 0.00 | 3.91 | 3.91 | 69 | 1010.2 |
| 20260507225632 | 23 | 195 | 0.0 | 1.6 | 0.00 | 3.91 | 3.91 | 70 | 1010.1 |
| 20260507225129 | 24 | 195 | 0.0 | 1.6 | 0.00 | 3.91 | 3.91 | 67 | 1010.2 |
| 20260507224624 | 25 | 186 | 0.0 | 1.6 | 0.00 | 3.91 | 3.91 | 67 | 1010.0 |
| 20260507224121 | 25 | 198 | 1.6 | 1.6 | 0.00 | 3.91 | 3.91 | 66 | 1010.1 |
| 20260507223617 | 25 | 192 | 0.0 | 1.6 | 0.00 | 3.91 | 3.91 | 63 | 1010.0 |
| 20260507223114 | 25 | 186 | 0.0 | 3.2 | 0.00 | 3.91 | 3.91 | 62 | 1010.0 |
| 20260507222611 | 25 | 191 | 1.6 | 1.6 | 0.00 | 3.91 | 3.91 | 65 | 1009.5 |
| 20260507222108 | 25 | 183 | 0.0 | 0.0 | 0.00 | 3.91 | 3.91 | 66 | 1009.8 |
| 20260507221604 | 25 | 193 | 0.0 | 0.0 | 0.00 | 3.91 | 3.91 | 70 | 1009.6 |
| 20260507221101 | 25 | 193 | 0.0 | 1.6 | 0.00 | 3.91 | 3.91 | 67 | 1009.8 |
| 20260507220558 | 25 | 191 | 0.0 | 1.6 | 0.00 | 3.91 | 3.91 | 65 | 1009.8 |
| 20260507220055 | 25 | 202 | 1.6 | 1.6 | 0.00 | 3.91 | 3.91 | 61 | 1009.9 |
| 20260507215551 | 25 | 207 | 1.6 | 1.6 | 0.00 | 3.91 | 3.91 | 62 | 1009.8 |
| 20260507215050 | 25 | 150 | 0.0 | 4.8 | 0.00 | 3.91 | 3.91 | 63 | 1009.9 |